Location: Pinawa
(50.1500°N, 95.8830°W)
Time: 01:37:19
(UTC-06:00)

Daily predictions for brighter satellites

Satellite Brightness Start Highest point End
(mag) Time Altitude Azimuth Time Altitude Azimuth Time Altitude Azimuth
ADEOS Rocket 4.4 02:37:07 10° NNE 02:41:51 35° ENE 02:41:51 35° ENE
Resurs 1-4 Rocket 4.3 02:42:56 10° NNE 02:44:46 22° NNE 02:44:46 22° NNE
CZ-2D R/B 4.1 02:54:29 10° NNE 02:56:42 25° NNE 02:56:42 25° NNE
Cosmos 2369 Rocket 3.3 03:26:32 42° NE 03:26:32 42° NE 03:30:21 10° NE
Cosmos 2278 Rocket 4.3 03:28:01 18° NNW 03:28:01 18° NNW 03:30:24 10° N
Cosmos 1140 Rocket 4.4 03:43:52 10° NNW 03:48:55 46° ENE 03:53:57 10° SE
ATLAS 5 CENTAUR R/B 2.8 03:51:29 46° ENE 03:51:29 46° ENE 03:55:25 10° NE
Cosmos 1943 Rocket 2.6 03:56:41 57° ESE 03:56:41 57° ESE 04:01:57 10° NE
ADEOS II 3.2 03:55:23 10° NNE 04:00:21 40° E 04:02:05 31° SE
CZ-4C R/B 3.6 04:00:42 27° SE 04:02:06 31° ESE 04:07:15 10° NE
Lacrosse 5 2.5 04:04:44 51° E 04:04:44 51° E 04:08:54 10° ENE
Okean O Rocket 2.7 04:00:44 10° NNE 04:03:58 42° NE 04:03:58 42° NE
CZ-4B R/B 3.7 04:10:55 10° NNE 04:16:30 59° ESE 04:18:49 34° SSE
Cosmos 2263 4.1 04:19:50 74° NNW 04:19:50 74° NNW 04:25:15 10° NNE
Resurs 1-4 Rocket 3.7 04:23:20 10° N 04:25:52 22° NNW 04:25:52 22° NNW
PSLV R/B 3.9 04:24:04 10° NNE 04:28:15 60° E 04:28:18 60° ESE
ADEOS Rocket 3.5 04:22:36 10° N 04:28:49 45° WNW 04:28:49 45° WNW
Cosmos 1867 4.0 04:30:23 46° NW 04:30:23 46° NW 04:35:32 10° NE
Cosmos 1850 Rocket 4.4 04:25:34 10° NNW 04:30:55 64° ENE 04:36:11 10° SE
Cosmos 1624 Rocket 4.1 04:33:17 60° NW 04:33:17 60° NW 04:38:17 10° NNE
Cosmos 2056 Rocket 3.5 04:35:24 61° NW 04:35:24 61° NW 04:40:22 10° NNE
MOS 1-B 4.4 04:30:31 10° N 04:36:09 55° WNW 04:36:17 55° WNW
Nadezhda 2 Rocket 4.3 04:30:31 10° NNW 04:36:36 68° W 04:40:04 27° S
Lacrosse 5 rocket 1.9 04:40:15 46° E 04:40:15 46° E 04:42:55 10° ESE
CZ-2D R/B 3.7 04:35:20 10° N 04:38:03 21° NW 04:38:03 21° NW
Cosmos 1782 Rocket 3.5 04:35:22 10° N 04:39:52 85° ENE 04:41:09 47° SSE
USA 234 4.5 04:37:27 10° ENE 04:43:21 35° SE 04:48:27 13° SSW
Cosmos 2297 Rocket 3.6 04:42:21 10° NNW 04:47:38 38° NE 04:52:53 10° ESE
IRS-1C Rocket 4.0 04:44:38 10° NNE 04:49:56 74° WNW 04:51:28 46° SW
Cosmos 1656 Rocket 3.8 04:51:34 28° SSW 04:54:40 76° ESE 05:00:21 10° NNE
Cosmos 1745 Rocket 4.1 04:49:08 10° N 04:55:19 74° E 05:01:26 10° SSE
Meteor PRIRODA 3.9 04:52:35 10° NNE 04:56:16 68° ESE 04:57:21 42° S
GEOS 3 Rocket 3.6 04:51:24 10° SSE 04:56:23 53° SW 04:57:12 48° W
Cosmos 1417 Rocket 4.4 04:54:17 10° S 05:00:27 86° E 05:06:38 10° N
Meteor 1-14 Rocket 4.2 04:54:53 10° NNW 05:00:40 66° W 05:06:16 10° S
Cosmos 972 4.4 04:59:47 44° SW 05:01:19 68° WNW 05:06:48 10° NNE
Cosmos 1782 4.1 04:58:06 10° SSE 05:01:50 41° E 05:05:36 10° NNE
ATLAS 3B R/B 4.0 04:57:39 10° S 05:04:37 42° ESE 05:11:20 10° NE
PAYLOAD B 4.3 05:00:25 10° N 05:05:51 58° WNW 05:08:16 33° SW
MOS 1 Rocket 4.0 05:01:29 10° N 05:06:34 41° WNW 05:07:21 39° W
Okean-O 2.9 05:02:21 10° NNE 05:06:48 67° ESE 05:11:13 10° S
Cosmos 2219 3.2 05:01:47 10° NW 05:07:19 53° WSW 05:12:46 10° S
CZ-4B DEB 4.2 05:02:05 10° N 05:07:34 61° WNW 05:10:24 28° SW
Cosmos 2227 Rocket 2.7 05:02:49 10° NNW 05:08:30 62° ENE 05:14:06 10° SE
CZ-4B R/B 3.8 05:04:52 10° N 05:07:40 32° NW 05:07:40 32° NW
Cosmos 2369 Rocket 3.1 05:08:20 29° WNW 05:09:12 30° NW 05:14:10 10° NNE
Tiangong 1 3.1 05:12:02 18° SSE 05:12:02 18° SSE 05:13:38 10° SE
Meteor 1-31 Rocket 2.8 05:09:59 10° NNE 05:13:54 78° E 05:17:23 12° S
Okean 2 Rocket 3.0 05:10:05 10° NNW 05:14:26 59° W 05:18:44 10° S
Meteor 2-10 Rocket 3.4 05:12:24 26° SSW 05:15:11 62° WNW 05:20:19 10° N
Meteor 1-25 Rocket 4.2 05:10:12 10° NNW 05:16:00 69° W 05:21:48 10° S
Cosmos 1452 Rocket 3.5 05:13:33 30° SW 05:16:07 65° WNW 05:21:24 10° NNE
Meteor 1-26 Rocket 4.2 05:12:43 19° SSW 05:16:43 62° WNW 05:22:15 10° N
Cosmos 1703 Rocket 3.7 05:17:36 39° WSW 05:18:41 49° WNW 05:22:58 10° N
BREEZE-M DEB 4.4 05:18:33 57° W 05:19:12 87° S 05:23:49 10° E
ERS-2 2.2 05:16:18 10° N 05:19:56 54° WNW 05:20:38 45° WSW
Thor Agena Rocket 3.4 05:15:39 10° S 05:20:48 65° WSW 05:25:56 10° NNW
Cosmos 1741 Rocket 4.1 05:18:58 10° NNW 05:24:04 53° WSW 05:29:09 10° S
RUBIN 8/PSLV 4.5 05:24:58 10° N 05:29:19 67° WNW 05:33:37 10° SSW
Cosmos 614 Rocket 4.4 05:25:39 10° NW 05:30:20 38° WSW 05:35:02 10° S
Cosmos 1140 Rocket 4.2 05:26:01 10° NW 05:30:33 30° W 05:35:04 10° SSW
Cosmos 2151 Rocket 3.5 05:30:02 10° NNW 05:34:34 75° W 05:39:01 10° S
ATLAS 5 CENTAUR R/B 2.8 05:33:02 24° WNW 05:35:15 35° NNW 05:40:17 10° NE
ADEOS II 2.7 05:35:17 10° N 05:40:01 35° WNW 05:43:03 19° WSW
Cosmos 1943 Rocket 3.0 05:38:13 23° W 05:40:34 31° NW 05:45:32 10° NNE
Okean O Rocket 2.9 05:37:48 10° NNW 05:41:05 21° WNW 05:41:26 21° WNW
Meteor 2-11 Rocket 4.5 05:35:24 10° S 05:41:31 87° E 05:47:43 10° N
Meteor 1-11 Rocket 3.9 05:39:56 10° N 05:45:58 83° ENE 05:51:51 10° SSE
Lacrosse 5 2.3 05:43:56 22° W 05:47:02 51° NNW 05:51:59 10° ENE
COSMO-SKYMED 1 2.5 05:42:59 10° S 05:47:17 63° WSW 05:51:37 10° NNW
S3M 4.1 05:43:51 10° SSW 05:50:03 57° WNW 05:56:13 10° N
CZ-4C R/B 2.4 05:45:55 17° WSW 05:50:10 63° NW 05:56:29 10° NE
Meteor 1-28 Rocket 3.1 05:48:54 10° S 05:52:37 72° WSW 05:56:24 10° NNW
Meteor 1-10 Rocket 4.2 05:47:24 10° SSW 05:53:00 79° WNW 05:58:45 10° N
Okean 1-7 3.7 05:51:28 14° SW 05:54:32 32° WNW 05:58:24 10° N
Cosmos 1553 Rocket 4.2 05:49:24 10° SSW 05:55:27 50° WNW 06:01:38 10° N
CZ-4 R/B 4.1 05:52:51 10° NE 05:56:16 24° E 05:59:37 10° SSE
CZ-4B R/B 4.2 05:52:01 10° N 05:56:44 28° WNW 06:00:43 13° WSW
Radarsat Rocket 4.4 05:51:06 10° NNE 05:58:30 87° ESE 06:04:57 10° SSW
USA 81 4.1 05:56:52 10° SSW 06:02:04 58° W 06:07:18 10° N
Meteor 1-5 Rocket 4.5 06:05:38 10° N 06:11:14 71° ENE 06:16:37 10° SSE
Cosmos 2082 3.8 06:05:40 10° NW 06:11:14 57° WSW 06:16:43 10° S
Cosmos 1536 2.8 06:08:59 10° N 06:13:01 89° W 06:17:02 10° S
COSMOS 2455 4.0 06:08:44 10° S 06:14:28 47° ESE 06:20:12 10° NE
Lacrosse 5 rocket 2.5 06:15:59 13° W 06:18:09 21° SW 06:20:53 10° S
Ariane Rocket 3.2 06:14:03 10° NNE 06:19:11 82° ESE 06:24:16 10° SSW
Abrixas 3.2 06:17:03 13° W 06:19:16 36° SSW 06:21:58 10° SE
Cosmos 1606 3.3 06:16:32 10° SW 06:20:09 36° WNW 06:23:49 10° N
Cosmos 1602 4.2 06:17:28 10° NNW 06:21:14 41° W 06:24:57 10° SSW
Cosmos 1300 Rocket 3.8 06:17:07 10° NNW 06:21:25 49° W 06:25:39 10° SSW
Cosmos 1709 Rocket 4.0 06:15:52 10° NNW 06:21:49 56° W 06:27:47 10° SSW
Cosmos 2074 Rocket 4.4 06:17:22 10° N 06:23:42 74° ENE 06:29:59 10° SSE
Cosmos 2263 Rocket 4.3 06:21:12 10° NNW 06:25:44 24° NE 06:30:13 10° E
Meteor 1-27 Rocket 3.8 06:20:45 10° SSW 06:26:34 71° WNW 06:32:31 10° N
USA 234 3.3 06:20:17 10° ENE 06:26:51 89° NNW 06:33:25 10° WSW
Cosmos 1354 Rocket 4.3 06:22:29 10° NNW 06:27:51 75° ENE 06:33:11 10° SSE
Cosmos 1975 Rocket 4.0 06:24:14 10° S 06:28:30 53° E 06:32:45 10° NNE
Okean 3 3.6 06:24:43 10° S 06:29:02 85° E 06:33:23 10° N
Cosmos 2184 Rocket 4.2 06:24:21 10° N 06:30:34 79° E 06:36:44 10° SSE
Cosmos 2297 Rocket 2.5 06:26:25 10° NW 06:31:48 45° WSW 06:37:08 10° S
Cosmos 2369 3.8 06:26:54 10° SSW 06:32:33 89° ESE 06:38:15 10° NNE
Cosmos 1633 3.7 06:33:16 10° NW 06:36:15 24° W 06:39:11 10° SW
CSL-04 Debris 4.3 06:31:28 10° NNE 06:36:55 86° ESE 06:42:19 10° SSW
USA 238 DEB 3.9 06:30:19 10° SW 06:37:20 83° SE 06:44:24 10° NE
USA 238 3.9 06:30:24 10° SW 06:37:25 82° SE 06:44:30 10° NE
Cosmos 1782 4.1 06:35:22 10° WSW 06:38:24 20° WNW 06:41:27 10° NNW
Cosmos 1486 Rocket 4.2 06:36:33 10° NNW 06:41:37 50° WSW 06:46:38 10° S
